SCP
0 0 0 0 0 0 0 0 1 1 0 0 0 0 0 0 0 0 0 0 0 0 0 0 0 0 0 0 0 0 0 0 0 0 0 0 0 0 0 0 0 0 0
0 0 0 0 0 0 0 0 1 1 0 0 0 0 0 0 0 0 0 0 0 0 0 -0 0 0 0 0 0 0 0 0 0 0 0 0 0 0 0 0 0 0 0
0 0 0 0 0 0 0 0 1 1 1 0 0 0 0 0 0 0 0 0 0 0 0 0 0 0 0 0 0 0 0 1 0 0 0 0 0 0 0 0 0 0 0
0 0 0 0 0 -0 0 0 0 1 1 0 0 0 0 0 0 0 0 0 0 0 0 0 0 0 0 0 0 0 0 1 0 0 0 0 0 0 0 0 0 0 0
0 0 0 0 0 0 0 0 0 0 0 0 0 0 0 1 1 1 1 1 0 0 0 0 0 0 0 0 0 0 0 0 0 0 0 0 0 0 0 0 0 0 0
0 0 0 0 0 0 0 0 1 0 0 0 0 0 0 0 0 0 0 0 0 0 0 0 0 0 0 0 0 0 0 0 0 0 0 0 0 0 0 0 0 0 0
0 0 0 0 0 0 0 0 0 0 0 1 0 0 0 0 0 0 0 0 0 0 0 0 0 0 0 0 0 0 0 0 0 0 0 0 0 0 0 0 0 1 1
0 0 0 0 0 0 0 0 0 0 0 0 0 0 0 0 0 0 0 0 0 0 0 0 0 0 0 0 -0 0 0 0 0 0 0 0 0 0 0 0 1 1 0
0 0 0 0 0 0 0 0 0 0 0 0 0 0 0 0 0 0 0 0 0 0 0 0 0 0 0 0 0 0 0 0 0 0 0 0 0 0 0 0 0 1 1
0 0 0 0 0 0 0 0 0 0 0 0 0 0 0 0 0 0 0 0 0 0 0 0 0 0 0 0 0 0 0 0 0 0 0 0 0 0 0 0 0 0 1
0 0 0 0 0 0 0 0 0 0 0 0 0 0 0 0 0 0 0 0 0 0 0 0 0 0 0 0 0 0 0 0 0 0 0 0 0 0 0 0 1 0 0
0 0 0 0 0 0 0 0 0 0 0 0 0 0 0 0 0 0 0 0 0 0 0 0 0 0 0 0 0 0 0 0 0 0 0 0 0 0 0 0 0 0 0
0 0 0 0 0 0 0 0 0 0 0 0 0 0 0 0 0 0 0 0 0 0 0 0 0 0 0 0 0 0 0 0 0 0 0 0 0 0 0 0 0 0 0
0 0 0 0 0 0 0 0 0 0 0 0 0 0 0 0 0 0 0 0 0 0 0 0 0 0 0 0 0 0 0 0 0 0 0 0 0 0 0 0 0 0 0
0 0 0 0 0 0 0 0 0 0 0 0 0 0 0 0 0 0 0 0 0 0 0 0 0 0 0 0 0 0 0 0 0 0 0 0 0 0 0 0 0 0 0
0 0 0 0 0 0 0 0 0 0 0 0 0 0 0 0 0 0 0 0 0 0 0 0 0 0 0 0 0 0 0 0 0 0 0 0 0 0 0 0 0 0 0
0 0 0 0 0 0 0 0 -0 -0 0 0 0 0 0 0 0 0 0 0 0 0 0 0 0 0 0 0 0 1 0 0 0 0 0 0 0 0 0 0 0 0 0
0 0 0 0 0 0 0 0 0 0 0 0 0 0 0 0 0 0 0 0 0 0 0 0 0 0 0 0 0 0 1 1 0 0 0 0 0 0 0 0 0 0 0
0 0 0 0 0 0 0 0 0 0 0 0 0 0 0 0 0 0 0 0 0 0 0 0 0 0 0 0 0 0 0 0 1 1 0 0 0 0 0 0 0 0 0
0 0 0 0 0 0 0 0 0 0 0 0 0 0 0 0 0 0 0 0 0 0 0 0 0 0 0 0 0 0 0 0 0 0 1 1 1 0 0 0 0 0 0
0 0 -0 -0 -0 -0 0 0 0 0 0 0 0 0 -0 0 0 0 0 0 0 0 0 0 0 0 0 0 0 0 0 0 0 0 0 1 1 1 1 0 0 0 0
0 0 0 0 0 0 0 0 0 0 0 0 0 0 0 0 0 0 0 0 0 0 0 0 0 0 0 0 0 0 0 0 0 0 0 0 1 1 1 1 0 1 0
0 0 0 0 0 0 0 -0 -0 0 0 0 0 0 0 0 0 0 0 0 0 0 0 0 0 0 0 0 0 0 0 0 0 0 0 0 0 1 1 1 1 0 0
0 0 0 0 0 0 0 0 0 0 0 0 0 0 0 0 0 0 0 0 0 0 0 0 0 0 0 0 0 0 0 0 0 0 0 0 0 0 1 1 1 0 0
0 0 0 0 0 0 0 0 0 0 0 0 0 0 0 0 0 0 0 0 0 0 0 0 0 0 0 0 0 0 0 0 0 0 0 0 0 0 0 1 0 1 0
0 0 0 0 0 0 0 0 0 0 0 -0 -0 0 0 0 0 0 0 0 0 0 0 0 0 0 0 0 0 0 0 0 0 0 0 0 0 0 0 0 0 0 0
Wind_Speed_500mb
24 26 29 31 30 31 38 38 43 37 36 37 37 40 41 42 43 42 29 27 35 32 36 36 35 38 42 44 47 50 54 54 61 62 53 45 41 35 32 31 31 34 39
17 21 27 29 27 28 34 38 33 35 36 35 33 34 35 41 45 54 49 43 43 41 37 31 30 25 40 46 46 54 58 59 59 65 60 52 47 42 39 38 39 43 43
17 18 18 18 21 20 18 16 19 26 28 31 32 36 38 40 49 50 51 42 47 49 51 52 46 39 42 47 52 56 58 61 61 62 63 53 51 47 46 43 39 44 43
21 22 22 17 15 18 26 19 17 18 21 28 28 33 35 33 34 38 42 40 40 46 44 47 47 45 46 48 51 55 55 59 62 63 63 56 52 53 52 48 46 45 52
33 38 39 33 31 36 42 37 34 31 29 31 31 28 25 31 27 29 30 35 41 42 41 40 47 49 49 51 52 53 58 61 65 64 67 69 62 61 58 51 44 35 34
40 47 49 46 49 45 41 41 44 46 44 39 40 41 34 24 23 24 24 32 37 39 42 43 46 46 40 32 34 42 48 54 61 69 68 73 73 66 59 50 49 52 46
37 37 43 50 53 56 52 50 45 44 41 46 41 44 42 38 33 29 28 27 29 30 34 39 48 40 30 25 28 34 46 52 55 60 69 75 73 66 63 55 53 53 48
43 44 46 50 58 60 62 58 56 53 50 46 40 38 42 43 43 45 42 43 44 41 40 37 38 42 34 37 40 40 38 38 47 64 70 73 73 66 60 63 51 51 55
52 52 50 49 52 56 62 65 65 65 63 59 53 48 43 43 41 39 40 47 55 60 58 53 47 46 44 35 46 46 47 48 45 49 61 64 64 65 61 55 59 55 54
42 46 53 60 61 61 59 62 69 70 70 69 66 65 63 59 52 51 53 54 59 64 66 68 63 57 51 48 46 48 51 44 31 40 54 58 71 66 65 61 58 61 62
47 48 49 52 53 59 62 63 58 55 58 67 70 74 74 71 69 64 62 62 63 68 71 70 69 67 63 55 55 51 51 46 49 39 39 46 58 72 65 61 63 68 64
56 60 60 57 55 53 55 60 61 70 73 78 80 82 80 81 80 77 72 71 68 69 73 72 65 64 65 64 55 55 51 49 56 59 56 53 46 59 62 53 58 64 69
66 65 63 61 58 55 56 57 56 57 63 71 76 79 80 80 87 85 78 75 73 71 71 69 65 64 63 63 61 61 53 58 58 62 55 49 42 61 65 54 55 64 63
70 67 65 62 59 58 56 54 54 53 52 52 54 62 63 69 67 67 65 62 61 63 54 57 59 57 56 58 58 59 62 64 62 68 64 63 53 50 60 60 57 56 68
69 70 68 65 62 59 50 54 46 49 48 52 53 54 55 56 55 50 44 48 49 41 32 41 45 40 35 35 40 42 51 61 67 69 64 57 49 40 46 51 57 58 67
70 70 64 61 58 56 53 44 37 38 39 37 48 57 61 63 59 49 43 40 37 37 39 36 38 41 48 46 44 39 39 49 58 60 55 48 54 49 48 49 51 53 62
66 60 59 56 54 49 44 41 42 35 37 44 44 42 45 56 55 54 50 46 46 45 48 49 49 51 51 57 56 53 45 42 48 51 47 45 49 58 57 50 53 56 56
54 53 55 53 50 43 38 32 29 37 45 48 31 29 28 34 38 44 43 44 51 51 51 51 49 54 50 58 61 57 52 44 44 43 46 43 41 54 63 49 57 60 63
52 51 51 46 44 43 38 33 31 35 36 38 39 32 26 26 28 33 37 45 51 54 55 55 47 43 46 52 54 55 58 55 52 47 48 49 46 39 53 58 53 52 58
57 53 50 48 45 41 35 33 30 32 33 35 35 33 30 24 25 30 33 34 40 46 47 49 50 48 52 51 53 55 58 62 59 56 55 52 51 48 44 47 53 53 55
60 63 65 65 60 54 48 45 40 36 35 31 29 26 29 28 28 27 29 31 39 37 40 43 47 51 55 57 57 57 53 51 60 61 60 61 65 62 57 52 47 51 60
55 57 60 65 68 70 66 58 48 42 40 36 34 29 23 23 17 23 27 25 33 40 41 44 47 47 45 49 50 52 54 49 50 56 60 59 60 68 73 71 65 57 52
55 55 55 55 58 64 70 75 78 71 58 48 40 35 32 30 31 30 30 30 32 35 40 42 43 47 48 49 50 52 55 56 49 45 47 48 52 61 63 69 72 66 59
55 55 56 56 58 58 57 60 61 65 72 74 68 60 55 48 38 31 26 27 27 29 32 34 39 44 49 49 51 51 54 57 59 56 51 52 53 51 54 60 65 61 58
55 55 55 55 56 57 57 56 59 61 63 66 67 72 73 74 62 60 50 47 48 31 25 25 31 36 41 48 52 53 59 62 63 59 56 53 57 56 53 54 55 56 56
55 54 53 52 53 53 55 56 57 57 57 57 59 61 65 66 65 70 62 57 61 57 39 35 39 39 34 35 46 56 61 64 68 68 62 58 57 57 58 57 56 55 54
Wind_Direction_500mb
321 319 314 320 317 310 298 296 285 275 276 280 274 264 261 255 257 260 258 264 249 239 237 254 254 243 250 256 256 253 249 248 251 256 257 249 251 255 255 253 246 244 245
318 311 313 319 322 311 302 287 277 271 271 274 274 272 268 265 256 239 253 273 253 242 252 259 265 261 255 259 260 256 252 248 251 252 255 253 249 249 251 254 255 251 251
342 344 335 316 316 325 334 312 290 275 274 276 273 273 272 268 266 253 245 265 257 244 253 257 258 265 268 267 262 259 256 251 246 249 252 251 247 246 249 252 257 254 252
308 316 318 310 304 340 338 337 336 324 303 291 282 272 268 264 265 255 256 260 244 249 251 253 256 269 273 277 271 263 261 255 248 244 246 250 250 246 249 248 252 260 251
289 294 293 295 295 301 310 308 313 315 317 314 306 299 288 260 258 260 260 256 252 252 253 254 261 268 276 281 274 271 266 261 246 242 243 246 248 241 243 244 249 249 261
273 279 278 283 291 286 283 278 282 293 296 296 292 288 289 283 272 261 264 250 256 256 254 257 257 268 276 273 267 270 274 265 248 243 244 243 244 241 242 245 246 251 259
291 289 271 271 274 273 275 280 281 284 286 292 272 270 268 265 267 269 272 267 264 258 259 260 252 262 269 265 268 270 271 268 257 253 249 246 244 241 239 243 245 250 248
286 282 279 274 270 265 265 264 268 273 273 275 273 276 277 273 270 268 271 272 272 269 267 268 266 262 270 265 271 276 264 272 281 266 257 251 246 243 240 240 244 251 248
284 280 277 277 274 269 266 264 262 263 264 266 269 273 277 277 278 276 279 279 274 271 270 269 270 267 263 274 262 267 263 273 286 271 259 256 252 242 234 232 231 235 233
316 306 293 282 277 276 271 261 261 259 257 256 258 260 263 265 266 270 276 279 280 280 276 269 267 265 267 260 258 266 260 271 296 284 265 258 246 238 228 228 231 231 224
318 314 314 311 297 281 275 270 266 265 264 259 258 257 257 258 262 266 268 272 273 278 279 277 268 263 262 264 256 258 262 271 280 297 284 259 235 237 233 230 231 227 225
314 308 309 310 303 295 287 277 273 272 272 271 270 265 263 260 259 260 261 266 272 271 275 274 271 266 265 262 261 259 262 267 270 272 272 281 253 232 229 231 232 229 229
322 315 308 296 288 293 294 289 279 274 273 271 272 271 269 265 265 263 261 262 265 269 273 270 266 266 267 266 258 255 257 254 260 259 263 256 274 253 240 234 235 237 232
332 329 327 317 302 286 281 285 288 283 286 287 282 277 278 272 269 272 265 262 263 270 267 265 263 263 258 259 260 255 253 254 258 259 260 262 264 269 241 235 235 238 235
338 334 330 326 321 316 301 272 280 284 284 284 282 282 281 279 272 272 272 264 266 260 263 265 250 247 246 253 260 269 264 254 256 255 259 269 250 263 253 247 249 246 238
341 340 335 329 324 320 315 302 264 282 288 285 289 276 269 267 267 267 261 262 255 255 259 269 243 246 252 259 270 278 285 263 253 252 251 256 245 246 264 262 260 261 251
347 343 342 340 335 327 317 313 290 290 291 297 294 294 282 268 265 259 258 255 256 256 254 254 260 258 257 257 261 267 276 285 263 250 248 254 249 243 246 259 260 262 258
353 359 358 355 352 346 338 331 309 298 303 304 309 310 299 277 266 257 253 253 256 255 257 260 264 259 259 258 259 267 269 272 268 253 250 254 253 244 236 254 258 268 260
360 1 1 3 5 5 6 6 2 344 320 308 310 305 299 287 279 258 256 259 260 263 265 263 262 255 257 258 259 258 258 260 260 255 253 254 253 253 240 240 263 274 259
21 18 9 6 5 5 358 350 343 340 339 341 345 342 324 301 275 267 268 276 268 269 272 264 262 263 261 267 264 264 264 257 252 252 249 247 249 253 250 245 248 260 261
24 30 32 28 22 14 4 359 357 351 349 346 344 349 326 309 281 277 275 272 277 275 273 269 272 271 266 261 263 261 268 260 252 250 251 248 248 249 252 253 244 247 249
17 21 23 30 33 33 28 17 6 0 356 352 344 333 335 340 327 298 294 282 263 265 265 264 267 268 263 260 265 259 261 266 260 253 251 253 255 252 250 251 255 252 245
20 21 24 25 26 34 39 39 35 29 25 15 6 2 355 343 334 324 315 303 292 281 277 271 267 270 269 266 257 257 262 263 261 262 255 255 256 255 252 249 250 253 251
20 21 22 23 25 26 27 30 35 35 32 33 33 34 36 26 6 344 339 327 317 308 293 285 281 278 273 267 261 255 256 255 255 257 258 258 254 254 251 250 249 249 253
16 18 20 21 22 22 23 25 27 31 30 26 25 26 31 36 31 35 36 40 31 18 356 322 303 294 284 276 269 262 254 253 251 245 252 257 254 250 253 249 246 247 248
15 15 15 17 18 19 21 22 23 24 24 25 21 22 18 21 23 25 25 22 32 34 26 29 31 24 3 318 286 272 263 254 252 244 242 241 243 246 248 252 245 246 248
Wind_Speed_850mb
24 26 29 31 30 31 38 38 43 37 36 37 37 40 41 42 43 42 29 27 35 32 36 36 35 38 42 44 47 50 54 54 61 62 53 45 41 35 32 31 31 34 39
17 21 27 29 27 28 34 38 33 35 36 35 33 34 35 41 45 54 49 43 43 41 37 31 30 25 40 46 46 54 58 59 59 65 60 52 47 42 39 38 39 43 43
17 18 18 18 21 20 18 16 19 26 28 31 32 36 38 40 49 50 51 42 47 49 51 52 46 39 42 47 52 56 58 61 61 62 63 53 51 47 46 43 39 44 43
21 22 22 17 15 18 26 19 17 18 21 28 28 33 35 33 34 38 42 40 40 46 44 47 47 45 46 48 51 55 55 59 62 63 63 56 52 53 52 48 46 45 52
33 38 39 33 31 36 42 37 34 31 29 31 31 28 25 31 27 29 30 35 41 42 41 40 47 49 49 51 52 53 58 61 65 64 67 69 62 61 58 51 44 35 34
40 47 49 46 49 45 41 41 44 46 44 39 40 41 34 24 23 24 24 32 37 39 42 43 46 46 40 32 34 42 48 54 61 69 68 73 73 66 59 50 49 52 46
37 37 43 50 53 56 52 50 45 44 41 46 41 44 42 38 33 29 28 27 29 30 34 39 48 40 30 25 28 34 46 52 55 60 69 75 73 66 63 55 53 53 48
43 44 46 50 58 60 62 58 56 53 50 46 40 38 42 43 43 45 42 43 44 41 40 37 38 42 34 37 40 40 38 38 47 64 70 73 73 66 60 63 51 51 55
52 52 50 49 52 56 62 65 65 65 63 59 53 48 43 43 41 39 40 47 55 60 58 53 47 46 44 35 46 46 47 48 45 49 61 64 64 65 61 55 59 55 54
42 46 53 60 61 61 59 62 69 70 70 69 66 65 63 59 52 51 53 54 59 64 66 68 63 57 51 48 46 48 51 44 31 40 54 58 71 66 65 61 58 61 62
47 48 49 52 53 59 62 63 58 55 58 67 70 74 74 71 69 64 62 62 63 68 71 70 69 67 63 55 55 51 51 46 49 39 39 46 58 72 65 61 63 68 64
56 60 60 57 55 53 55 60 61 70 73 78 80 82 80 81 80 77 72 71 68 69 73 72 65 64 65 64 55 55 51 49 56 59 56 53 46 59 62 53 58 64 69
66 65 63 61 58 55 56 57 56 57 63 71 76 79 80 80 87 85 78 75 73 71 71 69 65 64 63 63 61 61 53 58 58 62 55 49 42 61 65 54 55 64 63
70 67 65 62 59 58 56 54 54 53 52 52 54 62 63 69 67 67 65 62 61 63 54 57 59 57 56 58 58 59 62 64 62 68 64 63 53 50 60 60 57 56 68
69 70 68 65 62 59 50 54 46 49 48 52 53 54 55 56 55 50 44 48 49 41 32 41 45 40 35 35 40 42 51 61 67 69 64 57 49 40 46 51 57 58 67
70 70 64 61 58 56 53 44 37 38 39 37 48 57 61 63 59 49 43 40 37 37 39 36 38 41 48 46 44 39 39 49 58 60 55 48 54 49 48 49 51 53 62
66 60 59 56 54 49 44 41 42 35 37 44 44 42 45 56 55 54 50 46 46 45 48 49 49 51 51 57 56 53 45 42 48 51 47 45 49 58 57 50 53 56 56
54 53 55 53 50 43 38 32 29 37 45 48 31 29 28 34 38 44 43 44 51 51 51 51 49 54 50 58 61 57 52 44 44 43 46 43 41 54 63 49 57 60 63
52 51 51 46 44 43 38 33 31 35 36 38 39 32 26 26 28 33 37 45 51 54 55 55 47 43 46 52 54 55 58 55 52 47 48 49 46 39 53 58 53 52 58
57 53 50 48 45 41 35 33 30 32 33 35 35 33 30 24 25 30 33 34 40 46 47 49 50 48 52 51 53 55 58 62 59 56 55 52 51 48 44 47 53 53 55
60 63 65 65 60 54 48 45 40 36 35 31 29 26 29 28 28 27 29 31 39 37 40 43 47 51 55 57 57 57 53 51 60 61 60 61 65 62 57 52 47 51 60
55 57 60 65 68 70 66 58 48 42 40 36 34 29 23 23 17 23 27 25 33 40 41 44 47 47 45 49 50 52 54 49 50 56 60 59 60 68 73 71 65 57 52
55 55 55 55 58 64 70 75 78 71 58 48 40 35 32 30 31 30 30 30 32 35 40 42 43 47 48 49 50 52 55 56 49 45 47 48 52 61 63 69 72 66 59
55 55 56 56 58 58 57 60 61 65 72 74 68 60 55 48 38 31 26 27 27 29 32 34 39 44 49 49 51 51 54 57 59 56 51 52 53 51 54 60 65 61 58
55 55 55 55 56 57 57 56 59 61 63 66 67 72 73 74 62 60 50 47 48 31 25 25 31 36 41 48 52 53 59 62 63 59 56 53 57 56 53 54 55 56 56
55 54 53 52 53 53 55 56 57 57 57 57 59 61 65 66 65 70 62 57 61 57 39 35 39 39 34 35 46 56 61 64 68 68 62 58 57 57 58 57 56 55 54
Wind_Direction_850mb
321 319 314 320 317 310 298 296 285 275 276 280 274 264 261 255 257 260 258 264 249 239 237 254 254 243 250 256 256 253 249 248 251 256 257 249 251 255 255 253 246 244 245
318 311 313 319 322 311 302 287 277 271 271 274 274 272 268 265 256 239 253 273 253 242 252 259 265 261 255 259 260 256 252 248 251 252 255 253 249 249 251 254 255 251 251
342 344 335 316 316 325 334 312 290 275 274 276 273 273 272 268 266 253 245 265 257 244 253 257 258 265 268 267 262 259 256 251 246 249 252 251 247 246 249 252 257 254 252
308 316 318 310 304 340 338 337 336 324 303 291 282 272 268 264 265 255 256 260 244 249 251 253 256 269 273 277 271 263 261 255 248 244 246 250 250 246 249 248 252 260 251
289 294 293 295 295 301 310 308 313 315 317 314 306 299 288 260 258 260 260 256 252 252 253 254 261 268 276 281 274 271 266 261 246 242 243 246 248 241 243 244 249 249 261
273 279 278 283 291 286 283 278 282 293 296 296 292 288 289 283 272 261 264 250 256 256 254 257 257 268 276 273 267 270 274 265 248 243 244 243 244 241 242 245 246 251 259
291 289 271 271 274 273 275 280 281 284 286 292 272 270 268 265 267 269 272 267 264 258 259 260 252 262 269 265 268 270 271 268 257 253 249 246 244 241 239 243 245 250 248
286 282 279 274 270 265 265 264 268 273 273 275 273 276 277 273 270 268 271 272 272 269 267 268 266 262 270 265 271 276 264 272 281 266 257 251 246 243 240 240 244 251 248
284 280 277 277 274 269 266 264 262 263 264 266 269 273 277 277 278 276 279 279 274 271 270 269 270 267 263 274 262 267 263 273 286 271 259 256 252 242 234 232 231 235 233
316 306 293 282 277 276 271 261 261 259 257 256 258 260 263 265 266 270 276 279 280 280 276 269 267 265 267 260 258 266 260 271 296 284 265 258 246 238 228 228 231 231 224
318 314 314 311 297 281 275 270 266 265 264 259 258 257 257 258 262 266 268 272 273 278 279 277 268 263 262 264 256 258 262 271 280 297 284 259 235 237 233 230 231 227 225
314 308 309 310 303 295 287 277 273 272 272 271 270 265 263 260 259 260 261 266 272 271 275 274 271 266 265 262 261 259 262 267 270 272 272 281 253 232 229 231 232 229 229
322 315 308 296 288 293 294 289 279 274 273 271 272 271 269 265 265 263 261 262 265 269 273 270 266 266 267 266 258 255 257 254 260 259 263 256 274 253 240 234 235 237 232
332 329 327 317 302 286 281 285 288 283 286 287 282 277 278 272 269 272 265 262 263 270 267 265 263 263 258 259 260 255 253 254 258 259 260 262 264 269 241 235 235 238 235
338 334 330 326 321 316 301 272 280 284 284 284 282 282 281 279 272 272 272 264 266 260 263 265 250 247 246 253 260 269 264 254 256 255 259 269 250 263 253 247 249 246 238
341 340 335 329 324 320 315 302 264 282 288 285 289 276 269 267 267 267 261 262 255 255 259 269 243 246 252 259 270 278 285 263 253 252 251 256 245 246 264 262 260 261 251
347 343 342 340 335 327 317 313 290 290 291 297 294 294 282 268 265 259 258 255 256 256 254 254 260 258 257 257 261 267 276 285 263 250 248 254 249 243 246 259 260 262 258
353 359 358 355 352 346 338 331 309 298 303 304 309 310 299 277 266 257 253 253 256 255 257 260 264 259 259 258 259 267 269 272 268 253 250 254 253 244 236 254 258 268 260
360 1 1 3 5 5 6 6 2 344 320 308 310 305 299 287 279 258 256 259 260 263 265 263 262 255 257 258 259 258 258 260 260 255 253 254 253 253 240 240 263 274 259
21 18 9 6 5 5 358 350 343 340 339 341 345 342 324 301 275 267 268 276 268 269 272 264 262 263 261 267 264 264 264 257 252 252 249 247 249 253 250 245 248 260 261
24 30 32 28 22 14 4 359 357 351 349 346 344 349 326 309 281 277 275 272 277 275 273 269 272 271 266 261 263 261 268 260 252 250 251 248 248 249 252 253 244 247 249
17 21 23 30 33 33 28 17 6 0 356 352 344 333 335 340 327 298 294 282 263 265 265 264 267 268 263 260 265 259 261 266 260 253 251 253 255 252 250 251 255 252 245
20 21 24 25 26 34 39 39 35 29 25 15 6 2 355 343 334 324 315 303 292 281 277 271 267 270 269 266 257 257 262 263 261 262 255 255 256 255 252 249 250 253 251
20 21 22 23 25 26 27 30 35 35 32 33 33 34 36 26 6 344 339 327 317 308 293 285 281 278 273 267 261 255 256 255 255 257 258 258 254 254 251 250 249 249 253
16 18 20 21 22 22 23 25 27 31 30 26 25 26 31 36 31 35 36 40 31 18 356 322 303 294 284 276 269 262 254 253 251 245 252 257 254 250 253 249 246 247 248
15 15 15 17 18 19 21 22 23 24 24 25 21 22 18 21 23 25 25 22 32 34 26 29 31 24 3 318 286 272 263 254 252 244 242 241 243 246 248 252 245 246 248